Showing default

JILIN-01 GAOFEN 3D 30, 52447

Orbit data source: Space-Track

JILIN-01 GAOFEN 3D 30, 52447 is a payload satellite owned by Changguang WJ (CN) in SSO that was launched on Thu, 05 May 2022 UTC via a CHANG ZHENG 2D launch vehicle from the Taiyaun Space Center, China (TSC). Payload-class satellites include a variety of spacecraft equipped with specific instruments for various scientific and technological missions. These include communications satellites like Starlink; space stations such as the ISS; scientific satellites like the Hubble; Earth observation satellites from companies like Planet Labs, Umbra, and HawkEye 360; GPS; miniature CubeSats for education and research; and military/defense satellites.

Loading next visibility...
Identifier
52447, 2022-048E
Orbit
SSO
Last TLE update
6 hours ago
Origin
Manufacturer
Changguang WJ
Mission
Operational Commercial Imaging
Bus & Motor
JL-1, Unknown motor
Mass
42 kg wet, 42 kg dry
Launch date (UTC)
2022-05-05 (3 years ago)
Launch vehicle
CHANG ZHENG 2D
Launch site
Taiyaun Space Center, China (TSC)
Object type
Payload
Rocket body
Debris
Shape & HBR
Box + 2 Pan, 1.5 m
Radar Cross Section
2.000 m², Medium (>0.1 m² and < 1m²)

Expand to show TLE details & history

TLE from 6 hours ago
0 JILIN-01 GAOFEN 3D 30
1 52447U 22048E   25186.19308974  .00022319  00000-0  58172-3 0  9994
2 52447  97.5713 277.9043 0010011 210.1417 149.9253 15.38819703175750
Epoch: 2025-07-05T04:38Z
TLE epoch observation values (Epoch: 2025-07-05T04:38:02.953Z)
Latitude
-0.00002°
Longitude
-75.04265°
Altitude
458.627 km
Speed
7.634 km/s
True Right ascension
18h 31m 37s
True Declination
0° 00' 00"
Sunlit
Object was in full shadow at epoch
Visualization orbit readout
Latitude
-32.70201°
Longitude
-69.91186°
Altitude
465.181 km
Speed
7.631 km/s
Apparent Right ascension
15h 19m 32s
Apparent Declination
-56° 36' 32"
Sunlit
Object is in full shadow
Visualization observer readout
Local Sidereal Time
22:38:18
Azimuth
224.822° SW
Elevation
-42.686°
Doppler factor
1
Orbital elements
Apogee altitude
453.379 km
Perigee altitude
439.714 km
Semi-major axis
6,824.683 km
Eccentricity
0.001
Inclination
97.5713°
RAAN
277.9043°
Arg. of periapsis
210.1417°
True anomaly
Unknown
Mean anomaly
149.9253°
Eccentric anomaly
Unknown
Mean motion
3.84963 °/min
Orbital period
93.52 mins
BSTAR
0.00058172
Loading maneuver chart data...
Loading SW <> Apogee altitude chart data...
Loading historical data...
Loading historical data...
Loading historical data...
Loading historical data...
Loading historical data...
Loading historical data...
Loading historical data...

JILIN-01 GAOFEN 3D 30 Visibility forecast

Observer location: undefined°, undefined°

Span
Click to sort rows by Start time (UTC) header in descending order
Start Az.
Max El. time (UTC)
Max El. Az.
Max El.
End time (UTC)
End Az.
6 mins2025-07-05 19:14:02.425Z2.257° NNE2025-07-05 19:17:02.425Z278.744° WNW39.773°2025-07-05 19:20:02.425Z206.665° SW
5 mins2025-07-06 05:45:02.425Z131.15° SE2025-07-06 05:47:02.425Z74.038° E30.81°2025-07-06 05:50:02.425Z6.21° NNE
|